{"data":{"norad_id":52793,"intl_designator":"2022-058J","name":"GEESAT-1 09","alt_names":[],"object_type":"PAYLOAD","status":"ACTIVE","operator":null,"country":"PRC","launch_date":"2022-06-02","launch_site_code":"XICLF","launch_vehicle":null,"mission":null,"orbit_class":"UNKNOWN","rcs_meters":null,"size_class":null,"mass_kg":null,"dimensions":null,"purposes":[],"wikipedia_slug":null,"has_3d_model":false,"image_url":null,"decayed_at":null,"tle_current":{"epoch":"2026-09-20T22:03:06.938784Z","epoch_age_seconds":95525,"freshness":"FRESH","line1":"1 52793U 22058J   26263.91883031  .00002455  00000+0  20957-3 0  9996","line2":"2 52793  49.9965  86.0098 0006776 185.4608 174.6264 15.01170467234628","mean_motion":15.01170467,"eccentricity":0.0006776,"inclination_deg":49.9965,"raan_deg":86.0098,"arg_perigee_deg":185.4608,"mean_anomaly_deg":174.6264,"bstar":0.00020957,"rev_number":23462,"period_min":95.925148519459,"perigee_km":558.58232638808,"apogee_km":567.98934261339,"semimajor_km":6941.4228345007,"source":"CELESTRAK","updated_at":"2026-09-21T09:00:08.721810Z"}}}